Weather History for Rocky Mount, NC

Change the Weather History Date:

Saturday, October 6, 2012

  Actual Average Record
Temperature  
Mean Temperature 68 °F -  
Max Temperature 84 °F 78 °F 101 °F (1954)
Min Temperature 53 °F 51 °F 31 °F (1968)
Cooling Degree Days 4    
Growing Degree Days 18 (Base 50)    
Moisture  
Dew Point 57 °F    
Average Humidity 88    
Maximum Humidity 100    
Minimum Humidity 44    
Precipitation  
Precipitation 0.01 in - - ()
Sea Level Pressure  
Sea Level Pressure 29.98 in    
Wind  
Wind Speed 1 mph (West)    
Max Wind Speed 10 mph    
Max Gust Speed -    
Visibility 4 miles    
Events Fog    
Averages and records for this station are not official NWS values.
T = Trace of Precipitation, MM = Missing Value Source: NWS Daily Summary

Daily Weather History Graph

Daily Weather History Graph

Search for Another Location

Airport:

Trip Planner

Search our weather history database for the weather conditions in past years. The results will help you decide how hot, cold, wet, or windy it might be!

Date:

Astronomy

Oct. 06, 2012 Rise Set
Actual Time 7:11 AM EDT 6:47 PM EDT
Civil Twilight 6:45 AM EDT 7:13 PM EDT
Nautical Twilight 6:15 AM EDT 7:42 PM EDT
Astronomical Twilight 5:46 AM EDT 8:12 PM EDT
Moon 11:09 PM EDT (10/6) 12:55 PM EDT (10/6)
Length of Visible Light 12h 27m
Length of Day
11h 36m
Waning Gibbous, 65% of the Moon is Illuminated
Oct 6
Waning Gibbous
Oct 8
Last Quarter
Oct 15
New
Oct 21
First Quarter
Oct 29
Full

Hourly Weather History & Observations

Time (EDT) Temp. Heat Index Dew Point Humidity Pressure Visibility Wind Dir Wind Speed Gust Speed Precip Events Conditions
12:14 AM 57.2 °F - 55.4 °F 94% 30.03 in 2.5 mi Calm Calm - N/A   Clear
12:32 AM 57.2 °F - 55.4 °F 94% 30.02 in 3.0 mi Calm Calm - N/A   Clear
12:41 AM 57.2 °F - 57.2 °F 100% 30.02 in 2.5 mi Calm Calm - N/A   Partly Cloudy
12:53 AM 57.0 °F - 55.9 °F 96% 30.02 in 2.0 mi Calm Calm - N/A   Partly Cloudy
1:04 AM 57.2 °F - 57.2 °F 100% 30.02 in 1.8 mi Calm Calm - N/A   Partly Cloudy
1:12 AM 57.2 °F - 55.4 °F 94% 30.02 in 2.0 mi Calm Calm - N/A   Clear
1:17 AM 57.2 °F - 55.4 °F 94% 30.02 in 1.8 mi Calm Calm - N/A   Partly Cloudy
1:41 AM 57.2 °F - 57.2 °F 100% 30.01 in 1.0 mi Calm Calm - N/A   Mist
1:48 AM 57.2 °F - 55.4 °F 94% 30.01 in 1.8 mi Calm Calm - N/A   Partly Cloudy
1:53 AM 57.0 °F - 55.9 °F 96% 30.01 in 1.8 mi Calm Calm - N/A   Partly Cloudy
2:00 AM 55.4 °F - 55.4 °F 100% 30.01 in 2.5 mi Calm Calm - N/A   Partly Cloudy
2:10 AM 55.4 °F - 55.4 °F 100% 30.01 in 3.0 mi Calm Calm - N/A   Clear
2:17 AM 57.2 °F - 55.4 °F 94% 30.01 in 2.0 mi Calm Calm - N/A   Partly Cloudy
2:23 AM 55.4 °F - 55.4 °F 100% 30.01 in 1.0 mi Calm Calm - N/A   Mist
2:34 AM 57.2 °F - 55.4 °F 94% 30.00 in 2.0 mi Calm Calm - N/A   Scattered Clouds
2:48 AM 55.4 °F - 55.4 °F 100% 30.00 in 1.8 mi Calm Calm - N/A   Partly Cloudy
2:53 AM 55.9 °F - 55.0 °F 97% 30.00 in 2.5 mi Calm Calm - N/A   Clear
3:05 AM 55.4 °F - 55.4 °F 100% 29.99 in 0.8 mi Calm Calm - N/A   Clear
3:27 AM 57.2 °F - 55.4 °F 94% 29.99 in 1.8 mi Calm Calm - N/A   Clear
3:37 AM 57.2 °F - 55.4 °F 94% 29.98 in 2.5 mi Calm Calm - N/A   Clear
3:53 AM 57.0 °F - 55.9 °F 96% 29.98 in 3.0 mi Calm Calm - N/A   Clear
4:00 AM 57.2 °F - 57.2 °F 100% 29.98 in 1.8 mi Calm Calm - N/A   Clear
4:16 AM 55.4 °F - 55.4 °F 100% 29.98 in 2.5 mi Calm Calm - N/A   Clear
4:24 AM 57.2 °F - 55.4 °F 94% 29.98 in 3.0 mi Calm Calm - N/A   Clear
4:35 AM 57.2 °F - 55.4 °F 94% 29.98 in 1.8 mi Calm Calm - N/A   Clear
4:53 AM 55.9 °F - 55.9 °F 100% 29.98 in 1.0 mi Calm Calm - N/A   Clear
5:11 AM 55.4 °F - 53.6 °F 94% 29.98 in 0.5 mi Calm Calm - N/A Fog Fog
5:30 AM 55.4 °F - 55.4 °F 100% 29.97 in 1.0 mi Calm Calm - N/A   Clear
5:38 AM 55.4 °F - 55.4 °F 100% 29.97 in 0.8 mi Calm Calm - N/A   Clear
5:53 AM 55.0 °F - 54.0 °F 96% 29.97 in 1.0 mi Calm Calm - N/A   Clear
6:09 AM 57.2 °F - 55.4 °F 94% 29.98 in 3.0 mi Calm Calm - N/A   Clear
6:23 AM 55.4 °F - 55.4 °F 100% 29.98 in 2.5 mi Calm Calm - N/A   Clear
6:37 AM 55.4 °F - 55.4 °F 100% 29.98 in 1.8 mi Calm Calm - 0.01 in   Clear
6:53 AM 55.9 °F - 55.0 °F 97% 29.97 in 2.5 mi Calm Calm - 0.01 in   Clear
7:01 AM 55.4 °F - 55.4 °F 100% 29.97 in 3.0 mi Calm Calm - N/A   Clear
7:04 AM 55.4 °F - 53.6 °F 94% 29.97 in 1.8 mi Calm Calm - N/A   Clear
7:15 AM 53.6 °F - 53.6 °F 100% 29.98 in 0.8 mi Calm Calm - N/A   Clear
7:41 AM 55.4 °F - 53.6 °F 94% 29.98 in 1.2 mi Calm Calm - N/A   Clear
7:53 AM 57.0 °F - 55.9 °F 96% 29.98 in 2.5 mi Calm Calm - N/A   Clear
8:12 AM 60.8 °F - 57.2 °F 88% 29.98 in 4.0 mi Calm Calm - N/A   Partly Cloudy
8:53 AM 64.0 °F - 60.1 °F 87% 29.98 in 6.0 mi South 4.6 mph - N/A   Partly Cloudy
9:53 AM 71.1 °F - 63.0 °F 75% 29.98 in 10.0 mi SW 8.1 mph - N/A   Partly Cloudy
10:53 AM 77.0 °F - 64.0 °F 64% 29.96 in 10.0 mi SW 9.2 mph - N/A   Clear
11:53 AM 80.1 °F 81.5 °F 63.0 °F 56% 29.94 in 10.0 mi SSW 9.2 mph - N/A   Clear
12:53 PM 82.0 °F 83.0 °F 62.1 °F 51% 29.93 in 10.0 mi WSW 9.2 mph - N/A   Partly Cloudy
1:53 PM 82.9 °F 83.3 °F 61.0 °F 47% 29.89 in 10.0 mi SW 10.4 mph - N/A   Clear
2:53 PM 84.0 °F 84.4 °F 61.0 °F 46% 29.89 in 10.0 mi Variable 6.9 mph - N/A   Partly Cloudy
3:53 PM 84.0 °F 84.0 °F 60.1 °F 44% 29.88 in 10.0 mi WNW 5.8 mph - N/A   Clear
4:53 PM 82.9 °F 82.8 °F 59.0 °F 44% 29.88 in 10.0 mi WNW 5.8 mph - N/A   Clear
5:53 PM 80.1 °F 80.9 °F 60.1 °F 50% 29.89 in 10.0 mi Calm Calm - N/A   Clear
6:53 PM 72.0 °F - 66.0 °F 81% 29.91 in 10.0 mi Calm Calm - N/A   Mostly Cloudy
7:53 PM 68.0 °F - 64.9 °F 90% 29.93 in 10.0 mi Calm Calm - N/A   Scattered Clouds
8:53 PM 70.0 °F - 66.0 °F 87% 29.94 in 9.0 mi Calm Calm - N/A   Mostly Cloudy
9:53 PM 68.0 °F - 64.0 °F 87% 29.96 in 10.0 mi NW 4.6 mph - N/A   Overcast
10:53 PM 66.9 °F - 61.0 °F 81% 29.96 in 10.0 mi NNE 5.8 mph - N/A   Partly Cloudy
11:53 PM 68.0 °F - 59.0 °F 73% 29.96 in 10.0 mi North 6.9 mph - N/A   Clear